Weather History for Shenandoah, IA

Change the Weather History Date:

Tuesday, November 22, 2011

  Actual Average Record
Temperature  
Mean Temperature 40 °F -  
Max Temperature 42 °F 48 °F 72 °F (1966)
Min Temperature 37 °F 27 °F 9 °F (1956)
Degree Days  
Heating Degree Days 26    
Moisture  
Dew Point 36 °F    
Average Humidity 83    
Maximum Humidity 93    
Minimum Humidity 76    
Precipitation  
Precipitation 0.06 in - - ()
Sea Level Pressure  
Sea Level Pressure 30.07 in    
Wind  
Wind Speed 2 mph (NNW)    
Max Wind Speed 7 mph    
Max Gust Speed -    
Visibility 3 miles    
Events Rain    
Averages and records for this station are not official NWS values.
T = Trace of Precipitation, MM = Missing Value Source: NWS Daily Summary

Daily Weather History Graph

Daily Weather History Graph

Search for Another Location

Airport:

Trip Planner

Search our weather history database for the weather conditions in past years. The results will help you decide how hot, cold, wet, or windy it might be!

Date:

Astronomy

Nov. 22, 2011 Rise Set
Actual Time 7:16 AM CST 4:58 PM CST
Civil Twilight 6:46 AM CST 5:28 PM CST
Nautical Twilight 6:13 AM CST 6:02 PM CST
Astronomical Twilight 5:40 AM CST 6:34 PM CST
Moon 4:07 AM CST (11/22) 2:59 PM CST (11/22)
Length of Visible Light 10h 42m
Length of Day
9h 42m
Waning Crescent, 9% of the Moon is Illuminated
Nov 22
Waning Crescent
Nov 25
New
Dec 2
First Quarter
Dec 10
Full
Dec 17
Last Quarter

Hourly Weather History & Observations

Time (CST) Temp. Windchill Dew Point Humidity Pressure Visibility Wind Dir Wind Speed Gust Speed Precip Events Conditions
12:15 AM 39.2 °F - 33.8 °F 81% 30.12 in 5.0 mi Calm Calm - N/A   Haze
12:35 AM 39.2 °F - 33.8 °F 81% 30.12 in 5.0 mi Calm Calm - N/A   Haze
1:15 AM 39.2 °F - 33.8 °F 81% 30.11 in 4.0 mi Calm Calm - N/A   Overcast
1:35 AM 39.2 °F - 33.8 °F 81% 30.10 in 4.0 mi Calm Calm - N/A Rain Rain
1:55 AM 39.2 °F - 33.8 °F 81% 30.08 in 3.0 mi Calm Calm - N/A   Drizzle
2:15 AM 37.4 °F 34.9 °F 33.8 °F 87% 30.07 in 4.0 mi North 3.5 mph - N/A   Light Drizzle
2:35 AM 37.4 °F 33.8 °F 33.8 °F 87% 30.07 in 4.0 mi North 4.6 mph - N/A   Overcast
2:55 AM 37.4 °F - 33.8 °F 87% 30.07 in 4.0 mi Calm Calm - N/A   Overcast
3:15 AM 37.4 °F - 33.8 °F 87% 30.07 in 3.0 mi Calm Calm - N/A Rain Rain
3:35 AM 37.4 °F - 33.8 °F 87% 30.07 in 2.5 mi Calm Calm - N/A Rain Rain
3:55 AM 37.4 °F 34.9 °F 33.8 °F 87% 30.07 in 2.0 mi North 3.5 mph - 0.01 in Rain Light Rain
4:15 AM 37.4 °F 33.8 °F 33.8 °F 87% 30.07 in 2.0 mi North 4.6 mph - 0.01 in Rain Light Rain
4:35 AM 37.4 °F 33.8 °F 33.8 °F 87% 30.07 in 2.5 mi North 4.6 mph - 0.02 in Rain Rain
4:55 AM 37.4 °F 33.8 °F 33.8 °F 87% 30.06 in 2.5 mi NNE 4.6 mph - 0.03 in   Drizzle
5:15 AM 37.4 °F 34.9 °F 33.8 °F 87% 30.06 in 2.5 mi NE 3.5 mph - N/A Rain Rain
5:55 AM 37.4 °F 34.9 °F 33.8 °F 87% 30.05 in 2.5 mi ENE 3.5 mph - N/A Rain Rain
6:15 AM 37.4 °F - 33.8 °F 87% 30.06 in 2.5 mi Calm Calm - 0.02 in Rain Light Rain
6:35 AM 37.4 °F 34.9 °F 33.8 °F 87% 30.06 in 2.5 mi NNE 3.5 mph - 0.02 in Rain Light Rain
6:55 AM 37.4 °F 34.9 °F 33.8 °F 87% 30.06 in 2.5 mi North 3.5 mph - 0.02 in   Overcast
7:15 AM 37.4 °F 34.9 °F 33.8 °F 87% 30.06 in 2.5 mi North 3.5 mph - N/A   Overcast
7:35 AM 37.4 °F - 33.8 °F 87% 30.06 in 2.0 mi Calm Calm - N/A   Overcast
7:55 AM 37.4 °F 33.8 °F 35.6 °F 93% 30.06 in 2.0 mi NNE 4.6 mph - N/A   Overcast
8:15 AM 39.2 °F 35.9 °F 35.6 °F 87% 30.06 in 2.0 mi NNE 4.6 mph - N/A   Overcast
8:35 AM 39.2 °F 35.9 °F 35.6 °F 87% 30.07 in 2.5 mi North 4.6 mph - N/A   Overcast
8:55 AM 41.0 °F 37.1 °F 37.4 °F 87% 30.07 in 2.5 mi NNE 5.8 mph - N/A   Overcast
9:15 AM 39.2 °F 35.0 °F 35.6 °F 87% 30.06 in 3.0 mi North 5.8 mph - N/A   Overcast
9:35 AM 41.0 °F 37.1 °F 35.6 °F 81% 30.07 in 2.5 mi North 5.8 mph - N/A   Haze
9:55 AM 41.0 °F 37.1 °F 35.6 °F 81% 30.06 in 3.0 mi North 5.8 mph - N/A   Haze
10:15 AM 41.0 °F 37.1 °F 35.6 °F 81% 30.06 in 3.0 mi North 5.8 mph - N/A   Haze
10:35 AM 41.0 °F 37.1 °F 37.4 °F 87% 30.06 in 3.0 mi North 5.8 mph - N/A   Overcast
10:55 AM 42.8 °F 40.1 °F 37.4 °F 81% 30.05 in 2.5 mi North 4.6 mph - N/A   Haze
11:35 AM 42.8 °F 39.3 °F 37.4 °F 81% 30.04 in 3.0 mi NNW 5.8 mph - N/A   Haze
11:55 AM 42.8 °F 41.1 °F 37.4 °F 81% 30.04 in 3.0 mi NNW 3.5 mph - N/A   Haze
12:15 PM 42.8 °F 39.3 °F 37.4 °F 81% 30.04 in 2.5 mi NNW 5.8 mph - N/A   Haze
12:35 PM 42.8 °F 39.3 °F 37.4 °F 81% 30.04 in 2.5 mi NNW 5.8 mph - N/A   Haze
12:55 PM 42.8 °F 38.6 °F 37.4 °F 81% 30.04 in 3.0 mi NNW 6.9 mph - N/A   Haze
1:15 PM 42.8 °F 38.6 °F 37.4 °F 81% 30.04 in 4.0 mi NNW 6.9 mph - N/A   Haze
1:35 PM 42.8 °F 41.1 °F 37.4 °F 81% 30.04 in 5.0 mi NNW 3.5 mph - N/A   Haze
1:55 PM 42.8 °F 41.1 °F 37.4 °F 81% 30.04 in 4.0 mi NW 3.5 mph - N/A   Haze
2:15 PM 42.8 °F 41.1 °F 37.4 °F 81% 30.04 in 3.0 mi WNW 3.5 mph - N/A   Haze
2:35 PM 42.8 °F - 37.4 °F 81% 30.03 in 3.0 mi Calm Calm - N/A   Haze
2:55 PM 42.8 °F - 37.4 °F 81% 30.04 in 3.0 mi Calm Calm - N/A   Haze
3:15 PM 42.8 °F 39.3 °F 37.4 °F 81% 30.05 in 3.0 mi West 5.8 mph - N/A   Haze
3:35 PM 42.8 °F 38.6 °F 37.4 °F 81% 30.05 in 2.0 mi West 6.9 mph - N/A   Haze
3:55 PM 42.8 °F 39.3 °F 37.4 °F 81% 30.06 in 2.0 mi West 5.8 mph - N/A   Haze
4:15 PM 42.8 °F 41.1 °F 37.4 °F 81% 30.06 in 2.5 mi West 3.5 mph - N/A   Haze
4:35 PM 42.8 °F 41.1 °F 37.4 °F 81% 30.07 in 2.5 mi West 3.5 mph - N/A   Haze
4:55 PM 42.8 °F 41.1 °F 37.4 °F 81% 30.07 in 2.5 mi West 3.5 mph - N/A   Haze
5:15 PM 42.8 °F - 37.4 °F 81% 30.07 in 3.0 mi Calm Calm - N/A   Haze
5:35 PM 42.8 °F - 37.4 °F 81% 30.08 in 3.0 mi Calm Calm - N/A   Haze
5:55 PM 42.8 °F - 37.4 °F 81% 30.08 in 3.0 mi Calm Calm - N/A   Haze
6:15 PM 42.8 °F - 37.4 °F 81% 30.08 in 4.0 mi Calm Calm - N/A   Haze
6:35 PM 42.8 °F - 37.4 °F 81% 30.08 in 4.0 mi Calm Calm - N/A   Haze
6:55 PM 42.8 °F 41.1 °F 35.6 °F 76% 30.10 in 5.0 mi West 3.5 mph - N/A   Haze
7:15 PM 42.8 °F 41.1 °F 35.6 °F 76% 30.10 in 5.0 mi West 3.5 mph - N/A   Haze
7:35 PM 42.8 °F 41.1 °F 35.6 °F 76% 30.10 in 5.0 mi West 3.5 mph - N/A   Haze
7:55 PM 42.8 °F - 35.6 °F 76% 30.11 in 5.0 mi Calm Calm - N/A   Haze
8:15 PM 42.8 °F - 35.6 °F 76% 30.12 in 5.0 mi Calm Calm - N/A   Haze
8:35 PM 41.0 °F 38.0 °F 35.6 °F 81% 30.13 in 5.0 mi West 4.6 mph - N/A   Haze
8:55 PM 42.8 °F 41.1 °F 35.6 °F 76% 30.14 in 7.0 mi West 3.5 mph - N/A   Overcast
9:15 PM 41.0 °F - 35.6 °F 81% 30.15 in 7.0 mi Calm Calm - N/A   Overcast
9:35 PM 41.0 °F - 35.6 °F 81% 30.16 in 7.0 mi Calm Calm - N/A   Overcast
9:55 PM 41.0 °F 39.0 °F 35.6 °F 81% 30.17 in 7.0 mi WSW 3.5 mph - N/A   Overcast
10:15 PM 39.2 °F - 35.6 °F 87% 30.17 in 5.0 mi Calm Calm - N/A   Haze
10:35 PM 39.2 °F 37.0 °F 33.8 °F 81% 30.16 in 5.0 mi South 3.5 mph - N/A   Haze
10:55 PM 37.4 °F 34.9 °F 33.8 °F 87% 30.16 in 5.0 mi South 3.5 mph - N/A   Haze
11:15 PM 37.4 °F 34.9 °F 32.0 °F 81% 30.17 in 4.0 mi South 3.5 mph - N/A   Haze
11:35 PM 37.4 °F 34.9 °F 33.8 °F 87% 30.17 in 4.0 mi South 3.5 mph - N/A   Overcast
11:55 PM 35.6 °F 32.8 °F 32.0 °F 87% 30.17 in 3.0 mi South 3.5 mph - N/A   Overcast